GW5556 Weather Reports


time (UTC)temp
C
wind
direction
speed
KPH
gust
KPH
rain 1hr
cm
rain 24hr
cm
rain mn
cm
humidity
%
barometer
mb
20260505184504 23 191 11.3 32.2 0.00 0.00 0.00 27 1012.9
20260505183003 23 206 9.7 35.4 0.00 0.00 0.00 27 1013.1
20260505181505 23 144 8.0 22.5 0.00 0.00 0.00 29 1013.1
20260505180003 23 217 11.3 29.0 0.00 0.00 0.00 29 1013.1
20260505174514 23 192 11.3 25.7 0.00 0.00 0.00 28 1013.2
20260505173025 23 206 9.7 32.2 0.00 0.00 0.00 31 1013.3
20260505171506 22 238 9.7 25.7 0.00 0.00 0.00 29 1013.5
20260505170006 22 190 12.9 30.6 0.00 0.00 0.00 32 1013.7
20260505164532 22 171 8.0 25.7 0.00 0.00 0.00 33 1013.9
20260505163012 22 245 11.3 19.3 0.00 0.00 0.00 32 1014.1
20260505161514 22 153 11.3 27.4 0.00 0.00 0.00 34 1014.3
20260505153016 20 167 6.4 16.1 0.00 0.00 0.00 37 1014.7
20260505151508 20 180 1.6 12.9 0.00 0.00 0.00 40 1014.7
20260505124512 14 205 1.6 9.7 0.00 0.00 0.00 56 1014.3
20260505123014 13 171 6.4 12.9 0.00 0.00 0.00 58 1014.2
20260505121510 12 148 1.6 4.8 0.00 0.00 0.00 61 1014.2
20260505120015 10 189 0.0 3.2 0.00 0.00 0.00 63 1014.3
20260505114531 8 140 0.0 1.6 0.00 0.00 0.00 64 1014.4
20260505113017 8 257 0.0 0.0 0.00 0.00 0.00 64 1014.2
20260505111513 7 260 0.0 3.2 0.00 0.00 0.00 66 1014.0
20260505101521 7 319 0.0 4.8 0.00 0.00 0.00 65 1013.6
20260505100009 7 319 0.0 6.4 0.00 0.00 0.00 65 1013.6
20260505094521 7 319 0.0 3.2 0.00 0.00 0.00 64 1013.6
20260505093012 7 319 0.0 1.6 0.00 0.00 0.00 64 1013.5
20260505091507 8 319 6.4 9.7 0.00 0.00 0.00 63 1013.3
20260505090044 8 275 0.0 3.2 0.00 0.00 0.00 60 1013.1
20260505084510 10 275 0.0 6.4 0.00 0.00 0.00 58 1013.1
20260505083019 10 252 0.0 1.6 0.00 0.00 0.00 59 1013.0
20260505081520 9 252 0.0 3.2 0.00 0.00 0.00 60 1012.8
20260505080012 10 252 0.0 4.8 0.00 0.00 0.00 58 1012.5
20260505074521 11 251 0.0 4.8 0.00 0.00 0.00 57 1012.1
20260505073012 10 252 0.0 3.2 0.00 0.00 0.00 61 1012.1
20260505071524 9 252 1.6 4.8 0.00 0.00 0.00 61 1012.1
20260505070025 10 253 0.0 4.8 0.00 0.00 0.00 61 1012.0
20260505064513 9 253 0.0 3.2 0.00 0.00 0.00 61 1012.1
20260505063016 9 253 0.0 3.2 0.00 0.00 0.00 61 1012.4
20260505061525 10 253 1.6 3.2 0.00 0.00 0.00 62 1012.4
20260505060017 10 253 0.0 1.6 0.00 0.00 0.00 61 1012.4
20260505054528 11 253 0.0 1.6 0.00 0.00 0.00 59 1012.3
20260505053023 11 253 0.0 3.2 0.00 0.00 0.00 58 1012.3
20260505051518 11 253 0.0 1.6 0.00 0.00 0.00 57 1012.2
20260505041526 11 225 0.0 6.4 0.00 0.00 0.00 58 1012.4
20260505040004 11 221 0.0 3.2 0.00 0.00 0.00 60 1012.4
20260505034507 11 221 0.0 1.6 0.00 0.00 0.00 59 1012.5
20260505033008 11 221 0.0 3.2 0.00 0.00 0.00 59 1012.5
20260505031505 12 221 0.0 1.6 0.00 0.00 0.00 58 1012.7
20260505030010 12 221 0.0 1.6 0.00 0.00 0.00 56 1012.7
20260505024518 13 221 0.0 0.0 0.00 0.00 0.00 53 1012.7
20260505023004 13 221 1.6 4.8 0.00 0.00 0.00 52 1012.7
20260505021528 14 221 0.0 1.6 0.00 0.00 0.00 51 1012.8
20260505020006 15 221 1.6 3.2 0.00 0.00 0.00 49 1012.7
20260505014508 15 221 0.0 0.0 0.00 0.00 0.00 46 1012.7
20260505013014 16 221 0.0 3.2 0.00 0.00 0.00 44 1012.5
20260505011512 17 221 1.6 3.2 0.00 0.00 0.00 43 1012.2
20260505010009 18 221 1.6 4.8 0.00 0.00 0.00 38 1012.1
20260505004516 19 221 0.0 3.2 0.00 0.00 0.00 36 1011.9
20260505003006 20 221 1.6 3.2 0.00 0.00 0.00 34 1011.8
20260505001516 20 223 0.0 6.4 0.00 0.00 0.00 33 1011.8
20260505000015 21 213 1.6 6.4 0.00 0.00 0.00 32 1011.8
20260504234517 21 169 1.6 9.7 0.00 0.00 0.00 31 1011.6
20260504233008 22 221 3.2 9.7 0.00 0.00 0.00 29 1011.4
20260504231514 22 208 3.2 17.7 0.00 0.00 0.00 29 1011.4
20260504230014 22 214 4.8 17.7 0.00 0.00 0.00 28 1011.3
20260504224523 23 211 9.7 20.9 0.00 0.00 0.00 28 1011.2
20260504223012 23 210 8.0 17.7 0.00 0.00 0.00 27 1011.3
20260504221510 23 167 9.7 17.7 0.00 0.00 0.00 28 1011.2
20260504220003 23 195 3.2 17.7 0.00 0.00 0.00 29 1011.2
20260504214503 23 232 8.0 20.9 0.00 0.00 0.00 27 1011.3
20260504213004 23 168 3.2 14.5 0.00 0.00 0.00 30 1011.2
20260504211504 23 171 4.8 14.5 0.00 0.00 0.00 28 1011.3
20260504210006 23 192 4.8 14.5 0.00 0.00 0.00 30 1011.3
20260504204509 23 195 6.4 17.7 0.00 0.00 0.00 29 1011.4
20260504203003 23 204 3.2 17.7 0.00 0.00 0.00 29 1011.4
20260504201504 23 205 3.2 22.5 0.00 0.00 0.00 30 1011.5
20260504200004 23 236 9.7 19.3 0.00 0.00 0.00 30 1011.7
20260504194507 23 278 8.0 25.7 0.00 0.00 0.00 31 1011.8
20260504193003 22 189 6.4 24.1 0.00 0.00 0.00 28 1011.8
20260504191504 22 231 8.0 20.9 0.00 0.00 0.00 29 1012.2
20260504190006 22 198 8.0 16.1 0.00 0.00 0.00 30 1012.2